Weather in Dzinaga

Russia / Republic of North Ossetia — Alania     42°53′50″N   43°42′10″E
temp.,
°C
wind,
m/s
gust,
m/s
humid.,
%
clouds,
%
prec.,
mm/h
press.,
hPa
HPBL,
m
7 march, sun
sun700:00−5ssw6767100 0.0 1017136
03:00−7ssw567488 0.1 101999
06:00−12ese239738 2.1 1022167
09:00−9ene139464 3.2 1022239
12:00−7ene239189 1.3 1022381
15:00−6e148876 2.1 1021519
18:00−11ssw238956 0.3 102362
21:00−12sw338231 0.3 102363
8 march, mon
mon800:00−9ssw55740 0.0 102286
03:00−10ssw33726 0.0 102257
06:00−12sw228010 0.0 102135
09:00−7ssw138728 0.1 1019252
12:00−6e0286100 0.2 1017447
15:00−7ene1288100 0.6 1016346
18:00−11sw119385 0.2 101722
21:00−12sw337961 0.3 101930
9 march, tue
tue900:00−13sw43780 0.0 101940
03:00−13sw44780 0.0 101948
06:00−14sw447818 0.0 101956
09:00−9sw23779 0.0 1018270
12:00−6wsw12800 0.0 1017528
15:00−6ssw038018 0.2 1017752
18:00−12sw228952 0.2 101928
21:00−13sw447827 0.3 102353
10 march, wed
wed1000:00−14sw557837 0.2 102474
03:00−14sw547938 0.4 102465
06:00−15sw547537 0.1 102551
09:00−10ssw127919 0.1 1024254
12:00−8sse138247 0.3 1021426
15:00−8ese138560 0.9 1020414
18:00−12s1292100 0.5 102048
21:00−13ssw238799 0.7 102063
11 march, thu
thu1100:00−12ssw238898 0.3 101889
03:00−13s029598 1.1 101772
06:00−14se0196100 0.9 101643
09:00−12ne2297100 1.7 1015214
12:00−11ne3398100 1.6 1013398
15:00−13ne3397100 4.4 1013491
18:00−15ne23100100 2.9 1021234
21:00−18wnw01100100 4.2 102324